loading
|

STARLINK-31916, 59795

Orbit data source: Space-Track

STARLINK-31916, 59795 is a payload satellite owned by SpaceX/Seattle (US) in LEO that was launched on Sat, 18 May 2024 UTC via an FALCON 9 launch vehicle from the Air Force Eastern Test Range (AFETR). Payloads include a variety of satellites, spacecraft, and rockets equipped with specific instruments for various scientific and technological missions. These include communications satellites like Starlink; space stations such as the ISS; scientific satellites like the Hubble; Earth observation satellites from companies like Planet Labs, Umbra, and HawkEye 360; GPS; miniature CubeSats for education and research; and military/defense satellites.

Loading next visibility...
Loading greatness...
STARLINK-31916 details
Identifier
59795, 2024-093P
Orbit
LEO
Last TLE update1 day ago
Origin
Flag of USSpaceX/Seattle (US)
ManufacturerSpaceX/Seattle
Mission statusOperational
MissionUnknown
Bus & MotorSTARLINK V2M, Unknown motor
Mass750 kg wet, ~700 kg dry
Launch date (UTC)
2024-05-18 (4 months ago)
Launch vehicle
FALCON 9
Launch site
Air Force Eastern Test Range (AFETR)
Object type
Payload
Rocket body
Debris
Radar Cross SectionLarge (>1 m²)

Expand to show TLE details & history

TLE from 1 day ago
0 STARLINK-31916
1 59795U 24093P   24250.55444239  .00002980  00000-0  78577-4 0  9999
2 59795  43.0029  89.9095 0002117 288.0049  72.0577 15.40702501 18481
Epoch: 2024-09-06T13:18Z
Definitive object data (Epoch: 2024-09-06T13:18:23.822Z)
Latitude-0°
Longitude-95.81507°
Altitude443.365 km
Speed7.648 km/s
True Right ascension05h 59m 38s
True Declination0° 00' 00"
Sunlit
Object was in daylight at TLE epoch
Predictive object data (real-time)
Latitude-32.09001°
Longitude-144.82366°
Altitude451.435 km
Speed7.643 km/s
Apparent Right ascension00h 56m 29s
Apparent Declination-39° 29' 59"
Sunlit
Object is in full shadow
Predictive observer data (real-time)
Local Sidereal Time10:47:45
Azimuth260.495° W
Elevation-65.372°
Doppler factor1
Orbital elements
Apogee447.435 km
Perigee444.546 km
Semi-major axis6,824.128 km
Eccentricity0.0002117
Inclination43.0029°
RAAN89.9095°
Arg. of periapsis288.0049°
True anomaly72.08078°
Mean anomaly72.0577°
Eccentric anomaly72.06924°
Mean motion3.8501 °/min
BSTAR0.000078577
Period93.5 mins
No data available

STARLINK-31916 Visibility forecast

Observer location: 39.9160978°, -105.1181434

STARLINK-31916 is not visible in the next 10 days
Span
Click to sort rows by Start time (UTC) header in descending order
Start Az.
Max El. time (UTC)
Max El. Az.
Max El.
End time (UTC)
End Az.